{"data":{"norad_id":69763,"epoch":"2026-09-20T04:00:03.000096Z","epoch_age_seconds":54274,"freshness":"FRESH","line1":"1 69763U 26151A   26263.16670139 -.00037757  00000+0 -33162-2 0  9995","line2":"2 69763  51.8896 221.1983 0010925  56.6280  10.1824 14.96063432  2961","mean_motion":14.96063432,"eccentricity":0.0010925,"inclination_deg":51.8896,"raan_deg":221.1983,"arg_perigee_deg":56.628,"mean_anomaly_deg":10.1824,"bstar":-0.0033162,"rev_number":296,"period_min":96.252603278656,"perigee_km":571.47316031037,"apogee_km":586.67466615579,"semimajor_km":6957.2109132331,"source":"CELESTRAK","updated_at":"2026-09-20T09:00:25.087411Z"}}